Des Moines, IA

12:06 AM CST on December 13, 2019 (GMT -0600)
Des Moines International

Weather History for KDSM - November, 2019

Change the Weather History Date:

Tuesday, November 19, 2019

  Actual Average Record
Temperature  
Mean Temperature 46 °F 37 °F  
Max Temperature 55 °F 46 °F 75 °F (1942)
Min Temperature 36 °F 29 °F 3 °F (1914)
Degree Days  
Heating Degree Days 20 28  
Month to date heating degree days 591 434  
Since 1 July heating degree days 1123 918  
Cooling Degree Days 0 0  
Month to date cooling degree days 0 0  
Year to date cooling degree days 1160 1066  
Moisture  
Dew Point 36 °F    
Average Humidity 74    
Maximum Humidity 93    
Minimum Humidity 43    
Precipitation  
Precipitation 0.00 in 0.07 in 2.47 in (1948)
Month to date precipitation 0.44 1.49  
Year to date precipitation 47.17 33.90  
Snow  
Snow 0.00 in 0.10 in 2.60 in (1981)
Month to date snowfall 3.2 0.9  
Since 1 July snowfall 5.4 1.3  
Since 1 September snowfall 5.4 1.3  
Snow Depth 0.00 in    
Sea Level Pressure  
Sea Level Pressure 29.86 in    
Wind  
Wind Speed 10 mph ()    
Max Wind Speed 20 mph    
Max Gust Speed 28 mph    
Visibility 9.8 miles    
Events      
T = Trace of Precipitation, MM = Missing Value Source: Averaged Metar Reports

Daily Weather History Graph

Daily Weather History Graph

Search for Another Location

Airport or City:

Astronomy

Nov. 19, 2019 Rise Set
Actual Time 7:07 AM CST 4:51 PM CST
Civil Twilight 6:37 AM CST 5:21 PM CST
Nautical Twilight 6:04 AM CST 5:55 PM CST
Astronomical Twilight 5:31 AM CST 6:28 PM CST
Moon 11:49 PM CST (11/19) 1:18 PM CST (11/19)
Length of Visible Light 10h 43m
Length of Day
9h 43m
Waning Gibbous, 51% of the Moon is Illuminated
Nov 19
Waning Gibbous
Nov 19
Last Quarter
Nov 26
New
Dec 4
First Quarter
Dec 11
Full

Hourly Weather History & Observations

Time (CST) Temp. Windchill Dew Point Humidity Pressure Visibility Wind Dir Wind Speed Gust Speed Precip Events Conditions
12:22 AM 45.0 °F 38.9 °F 41.0 °F 86% 29.72 in 10.0 mi NW 12.7 mph 27.6 mph N/A   Overcast
12:54 AM 45.0 °F 38.9 °F 41.0 °F 86% 29.73 in 10.0 mi NW 12.7 mph - N/A   Overcast
1:14 AM 45.0 °F 38.9 °F 41.0 °F 86% 29.71 in 10.0 mi NW 12.7 mph - N/A   Overcast
1:49 AM 44.6 °F 38.4 °F 41.0 °F 87% 29.73 in 10.0 mi NW 12.7 mph - N/A   Overcast
1:54 AM 45.0 °F 38.5 °F 41.0 °F 86% 29.74 in 10.0 mi NW 13.8 mph 23.0 mph N/A   Overcast
2:54 AM 45.0 °F 38.2 °F 39.9 °F 82% 29.75 in 10.0 mi NNW 15.0 mph 21.9 mph N/A   Overcast
4:54 AM 42.1 °F 37.1 °F 39.0 °F 89% 29.78 in 9.0 mi WNW 8.1 mph - N/A   Mostly Cloudy
5:54 AM 39.0 °F 34.0 °F 37.0 °F 93% 29.80 in 10.0 mi WNW 6.9 mph - N/A   Partly Cloudy
6:54 AM 37.0 °F 31.0 °F 35.1 °F 93% 29.83 in 8.0 mi West 8.1 mph - N/A   Partly Cloudy
7:54 AM 37.0 °F 31.0 °F 35.1 °F 93% 29.84 in 8.0 mi West 8.1 mph - N/A   Partly Cloudy
8:54 AM 43.0 °F 36.0 °F 37.9 °F 82% 29.86 in 10.0 mi NW 13.8 mph - N/A   Partly Cloudy
9:54 AM 45.0 °F 38.9 °F 37.0 °F 74% 29.88 in 10.0 mi WNW 12.7 mph - N/A   Partly Cloudy
10:54 AM 48.9 °F - 37.9 °F 66% 29.90 in 10.0 mi NW 11.5 mph - N/A   Partly Cloudy
11:54 AM 51.1 °F - 37.0 °F 59% 29.89 in 10.0 mi NW 16.1 mph - N/A   Partly Cloudy
12:54 PM 54.0 °F - 34.0 °F 47% 29.88 in 10.0 mi NW 19.6 mph - N/A   Partly Cloudy
1:54 PM 55.0 °F - 33.1 °F 43% 29.88 in 10.0 mi WNW 15.0 mph - N/A   Partly Cloudy
2:54 PM 54.0 °F - 33.1 °F 45% 29.89 in 10.0 mi WNW 15.0 mph - N/A   Partly Cloudy
3:54 PM 53.1 °F - 33.1 °F 47% 29.91 in 10.0 mi WNW 12.7 mph - N/A   Partly Cloudy
4:54 PM 48.9 °F - 33.1 °F 54% 29.92 in 10.0 mi North 5.8 mph - N/A   Partly Cloudy
5:54 PM 46.9 °F - 34.0 °F 61% 29.94 in 10.0 mi North 5.8 mph - N/A   Partly Cloudy
6:54 PM 46.9 °F - 34.0 °F 61% 29.95 in 10.0 mi ENE 3.5 mph - N/A   Clear
7:54 PM 41.0 °F 39.0 °F 33.1 °F 73% 29.97 in 10.0 mi ENE 3.5 mph - N/A   Clear
8:54 PM 42.1 °F 39.2 °F 34.0 °F 73% 29.98 in 10.0 mi East 4.6 mph - N/A   Clear
9:54 PM 37.9 °F - 33.1 °F 83% 29.99 in 10.0 mi Calm Calm - N/A   Clear
10:54 PM 39.9 °F 36.7 °F 34.0 °F 79% 29.99 in 10.0 mi East 4.6 mph - N/A   Partly Cloudy
11:54 PM 39.9 °F 37.8 °F 35.1 °F 83% 30.02 in 10.0 mi East 3.5 mph - N/A   Mostly Cloudy